Wetbulb
62.30 61.82 62.10 63.44 62.84 62.45 62.21 62.10 62.16 62.27 62.01 62.34 62.43 62.47 62.28 61.99 61.85 61.91 62.18 62.37 62.67 63.00 63.05 63.01 63.09 63.38 61.22 55.26 53.13 57.82 65.68 63.93 60.38 59.93 58.15 57.37 54.98 54.20 51.01 51.07 50.95 49.30 49.37 49.97 50.23 50.19 50.24
62.57 61.70 61.10 61.03 61.59 63.24 62.75 62.32 62.17 61.79 61.45 61.54 61.90 62.04 62.06 61.67 61.37 61.50 61.87 62.06 62.31 62.48 62.56 62.52 63.11 61.62 58.29 51.92 56.62 58.01 58.38 58.39 59.15 59.00 57.55 57.69 55.40 54.82 51.80 49.74 49.73 49.61 49.16 48.95 49.54 49.69 49.74
63.41 62.15 61.57 61.59 61.51 61.79 63.54 62.86 62.39 61.34 61.13 61.19 61.53 61.76 61.69 61.18 61.11 61.02 61.45 61.57 61.68 61.83 61.98 62.29 62.62 60.49 55.55 52.77 56.74 58.18 58.21 57.60 58.73 58.74 56.33 57.13 56.87 53.97 52.49 49.11 50.60 49.53 48.00 48.96 49.31 49.44 48.71
64.03 62.76 62.55 61.98 61.70 61.74 62.72 63.28 62.60 61.30 60.64 60.84 61.23 61.33 61.01 60.72 60.54 60.53 60.77 60.85 61.35 61.35 61.48 61.70 60.19 56.99 52.78 55.88 57.96 56.54 57.92 57.20 58.19 58.89 57.89 57.32 56.68 53.61 51.93 51.62 50.24 48.54 48.63 46.06 49.11 48.39 48.26
62.58 62.18 62.25 61.69 61.41 61.64 62.51 63.40 62.60 61.32 60.12 59.78 60.26 60.26 60.13 60.06 59.95 59.90 59.64 60.19 61.32 61.26 61.41 61.20 57.33 55.14 51.05 57.48 53.84 56.01 57.22 55.02 56.25 56.82 56.28 55.31 54.98 52.39 51.60 49.78 48.06 48.31 44.37 44.57 46.20 48.51 47.46
62.70 61.98 61.59 61.36 61.36 61.81 61.92 63.13 62.51 61.09 59.44 58.90 58.76 58.24 58.33 59.18 59.53 59.59 59.33 60.09 60.99 59.48 59.01 57.45 54.91 52.26 52.13 51.10 53.54 54.49 56.44 55.80 53.97 54.29 53.95 53.76 53.08 51.30 50.87 48.76 43.76 43.81 43.64 44.58 44.34 47.03 46.59
62.65 61.96 61.46 61.39 61.40 62.05 61.79 62.76 62.34 60.64 59.11 58.03 57.88 57.67 57.25 58.32 58.99 58.69 59.81 57.91 54.89 53.45 54.66 52.29 51.87 50.98 51.15 53.17 54.21 52.96 54.58 53.64 53.64 52.66 49.57 51.69 48.98 47.78 47.51 47.93 46.70 45.30 44.17 44.21 46.54 46.58 44.27
62.45 61.60 61.08 61.04 61.86 62.00 62.00 62.61 61.85 60.26 58.47 57.46 57.29 57.06 56.68 57.94 58.28 57.91 58.89 55.86 55.74 56.76 50.69 52.84 51.28 51.46 52.68 53.31 49.56 51.36 54.11 50.52 50.38 48.31 49.70 48.94 47.02 47.90 47.36 46.87 45.79 45.20 44.30 45.23 46.20 45.33 43.83
62.07 61.10 60.41 61.91 62.34 62.21 62.36 61.82 60.19 58.76 57.38 56.91 56.72 56.22 56.51 57.61 57.47 58.59 58.24 57.24 59.85 58.36 51.94 50.17 51.38 50.94 51.06 51.90 49.38 49.86 51.95 51.04 49.16 47.72 47.52 46.35 47.18 46.89 45.89 45.96 44.81 45.72 43.87 43.40 42.11 44.98 46.89
61.57 60.38 60.87 61.42 62.72 62.55 61.39 59.56 58.24 57.04 56.48 56.47 55.99 56.11 56.87 56.36 55.78 59.61 56.94 59.30 60.29 59.04 48.47 48.13 48.82 50.37 51.08 51.87 48.86 51.66 52.56 51.04 48.79 46.82 47.01 47.14 47.05 45.49 45.24 44.60 44.54 43.17 43.84 43.06 42.92 42.76 41.58
61.37 60.28 61.31 61.04 60.83 60.08 59.13 57.87 56.44 55.32 55.42 55.92 55.97 55.86 55.84 55.40 59.73 56.79 58.54 60.73 60.54 56.10 40.21 48.81 48.81 53.28 51.46 49.50 49.86 49.40 52.34 50.86 47.72 47.16 47.28 44.86 44.83 44.49 44.48 43.79 44.31 43.89 44.29 43.43 43.35 42.60 43.10
61.11 60.36 61.23 60.57 60.16 59.26 58.00 56.65 55.31 54.66 54.64 54.42 54.50 54.86 55.44 58.20 59.93 59.81 61.23 59.69 57.71 46.16 39.48 45.07 49.03 47.76 47.69 48.90 48.80 49.69 49.93 51.57 50.33 47.18 47.59 46.23 46.33 45.62 44.74 44.26 43.79 44.63 43.43 44.83 44.38 44.12 41.57
60.77 60.44 60.65 60.20 59.66 58.67 57.65 56.33 55.27 54.82 54.42 54.66 54.25 53.78 53.97 60.03 57.51 61.87 59.25 56.27 45.94 41.82 47.61 44.20 45.56 47.18 47.69 46.72 47.28 47.71 47.19 46.65 45.95 42.75 43.66 45.00 44.65 44.13 44.22 43.53 45.17 44.99 44.63 42.16 41.20 41.39 40.43
60.54 60.26 60.04 59.92 59.29 58.47 57.78 56.72 55.44 54.99 54.76 54.48 53.66 52.88 56.79 60.44 62.10 60.35 57.33 50.42 41.41 44.91 45.21 47.89 47.16 47.18 45.26 47.08 47.01 46.80 46.44 45.44 47.60 46.19 44.38 42.90 41.03 43.35 43.10 43.06 42.41 42.89 42.85 40.59 34.62 37.57 39.44
60.29 60.00 59.59 59.76 59.13 58.47 57.99 57.38 56.05 55.29 55.32 53.56 52.34 57.24 59.51 60.77 61.76 59.49 53.00 44.13 44.95 46.27 48.18 46.08 46.41 44.65 44.80 45.84 45.80 46.32 46.27 46.67 47.64 47.28 44.01 43.17 41.75 42.18 41.70 42.30 42.66 42.90 43.41 43.52 40.57 40.91 38.66
60.09 59.81 59.38 59.54 58.97 58.41 58.03 57.38 56.02 55.56 55.34 52.92 57.23 57.49 58.45 60.68 61.85 57.19 50.03 45.47 47.14 47.64 48.25 48.04 44.78 46.72 44.08 44.51 44.08 45.18 46.04 48.16 46.65 47.69 48.15 46.32 41.66 42.13 41.03 42.17 42.65 42.69 43.90 41.40 42.67 36.51 35.37
60.02 59.77 59.42 59.09 58.66 57.92 57.61 57.30 55.94 55.61 54.61 52.39 57.50 53.78 57.82 60.09 59.27 52.73 45.75 47.63 48.60 48.83 49.24 46.96 47.05 45.13 46.43 45.12 45.61 45.22 45.99 46.33 47.78 45.59 47.08 47.06 44.36 40.07 41.09 41.02 42.46 41.12 41.54 41.66 42.24 41.14 37.95
60.11 59.81 59.35 58.91 58.34 57.68 57.31 56.85 56.04 55.67 53.36 50.03 56.57 50.01 57.32 58.84 49.48 50.53 47.35 49.28 47.56 48.49 49.73 48.50 48.51 47.79 46.49 46.79 45.16 46.01 45.74 46.59 48.36 46.94 43.70 46.60 45.74 42.17 41.61 41.41 41.91 42.14 42.55 43.49 40.71 39.76 40.64
60.19 59.79 59.33 58.82 58.15 57.35 56.80 56.37 55.57 54.62 51.17 56.47 52.95 52.33 56.53 56.02 45.60 47.34 49.33 48.41 48.20 48.27 48.47 47.98 47.34 48.89 48.66 46.78 44.76 46.82 47.01 46.07 47.52 46.88 45.76 46.13 44.12 41.11 39.75 40.50 41.22 40.10 42.45 42.90 42.89 42.53 38.94
59.97 59.59 59.37 58.76 57.87 57.06 56.33 55.76 55.12 54.49 52.09 52.44 52.73 47.36 52.07 51.88 52.71 49.25 47.76 46.87 46.00 49.87 49.34 49.70 48.99 49.38 47.22 46.52 47.77 46.24 46.23 45.52 46.56 47.73 48.06 48.57 45.98 44.13 41.83 42.68 44.43 40.04 41.21 41.49 42.46 39.87 40.61
59.66 59.40 59.28 58.93 57.76 56.97 56.20 55.60 55.03 54.57 52.79 50.05 52.52 48.83 52.04 45.93 47.54 48.84 49.66 48.04 45.99 45.45 48.71 49.76 47.78 48.02 47.33 45.44 45.69 45.33 47.71 44.64 45.14 47.26 46.38 47.31 43.13 45.03 45.15 44.83 43.50 43.40 43.24 42.01 39.59 42.41 40.54
59.55 59.28 59.23 58.85 57.77 57.03 56.19 55.43 54.78 54.05 51.78 49.02 50.77 49.45 51.62 51.27 50.09 48.17 46.46 46.69 46.27 47.24 47.25 46.37 46.46 48.24 48.84 47.07 47.57 46.16 47.47 47.10 46.45 46.09 45.59 46.64 43.56 43.20 42.18 44.12 43.20 41.17 43.28 43.66 43.43 42.31 42.25
59.45 59.04 58.71 58.46 57.65 56.97 56.01 54.96 54.14 53.04 50.16 49.64 55.65 54.02 52.12 48.39 49.48 47.24 47.66 46.62 46.97 48.78 48.91 49.66 48.88 48.56 47.51 48.97 50.87 50.39 51.68 50.64 50.50 47.34 45.53 45.34 44.44 42.31 40.61 41.67 40.93 38.66 43.58 44.17 43.76 45.49 44.82
57.94 58.87 58.32 58.17 57.63 56.94 56.18 55.22 54.28 52.57 49.71 54.05 54.71 53.73 49.98 46.40 48.75 48.06 48.47 48.75 48.04 48.38 47.90 49.09 49.89 48.59 50.48 52.98 51.43 50.88 49.95 48.94 49.41 48.97 49.64 45.38 44.92 44.39 40.58 40.73 34.54 46.21 46.34 45.27 44.77 46.06 47.11
56.06 59.01 58.15 58.04 57.66 56.88 56.31 55.69 54.95 53.03 50.35 51.07 54.85 52.94 51.16 47.82 48.80 49.34 49.83 49.65 49.92 50.23 48.76 48.96 49.71 51.66 52.85 50.84 47.22 44.37 44.32 44.70 45.85 47.48 46.39 48.25 45.90 43.31 39.31 38.79 43.65 44.90 47.73 43.15 42.46 46.11 49.32
55.50 56.51 58.48 57.98 57.64 56.79 56.11 55.54 54.96 53.52 51.37 49.92 51.98 55.58 52.14 48.04 47.15 51.09 48.93 50.21 48.26 48.14 48.01 48.87 48.72 52.06 51.98 49.60 47.59 41.96 40.61 43.64 41.36 40.73 43.30 45.21 45.70 44.32 40.80 36.29 36.17 46.29 45.69 47.55 47.53 41.81 51.32
56.22 55.71 55.09 56.35 57.72 56.99 56.46 55.85 55.26 53.84 52.17 49.81 48.68 54.02 52.39 48.15 49.78 50.59 48.98 48.33 51.98 50.46 48.68 49.21 46.67 46.73 50.48 48.76 45.01 43.29 43.02 47.01 41.43 40.66 37.30 39.10 41.19 39.24 40.30 39.55 43.30 49.18 46.88 47.97 41.57 46.25 51.45
54.78 55.94 55.75 55.76 55.91 57.16 56.75 56.22 55.46 54.42 53.07 50.39 48.13 51.44 53.26 50.94 48.95 49.57 51.07 49.32 50.57 51.47 47.44 48.98 46.60 47.17 46.39 45.94 45.07 44.94 44.11 44.82 44.50 46.57 41.94 40.28 39.28 38.06 40.43 39.20 36.82 50.91 45.37 43.99 50.58 52.63 51.79
54.12 54.80 55.88 56.13 56.09 55.81 55.80 56.48 55.78 55.08 53.59 51.47 47.35 49.83 51.17 49.54 48.75 49.88 50.51 51.30 52.25 52.73 51.50 48.90 50.33 48.28 49.33 46.95 48.06 48.58 44.86 46.65 45.09 42.20 47.18 42.26 46.77 44.86 45.01 44.77 49.73 48.79 51.10 50.50 51.93 52.45 52.69
MSLP
1021.40 1021.44 1021.43 1021.48 1021.47 1021.48 1021.59 1021.52 1021.40 1021.32 1021.14 1020.98 1020.81 1020.64 1020.45 1020.27 1020.07 1019.82 1019.58 1019.29 1018.99 1018.75 1018.50 1018.25 1017.87 1017.66 1017.05 1015.62 1015.73 1016.07 1016.37 1016.25 1015.84 1015.50 1014.95 1014.56 1014.09 1014.23 1014.19 1014.62 1014.85 1014.78 1015.64 1016.23 1016.78 1017.06 1017.05
1021.25 1021.28 1021.32 1021.34 1021.39 1021.35 1021.40 1021.51 1021.40 1021.36 1021.25 1021.11 1020.87 1020.71 1020.51 1020.32 1020.13 1019.84 1019.55 1019.25 1018.84 1018.64 1018.43 1018.07 1017.82 1017.73 1016.77 1015.50 1016.18 1016.02 1016.10 1015.97 1015.73 1015.36 1015.07 1014.80 1014.60 1014.82 1014.82 1015.09 1015.14 1015.60 1015.84 1016.16 1016.61 1016.75 1017.02
1020.89 1021.05 1021.10 1021.15 1021.21 1021.24 1021.20 1021.32 1021.35 1021.32 1021.27 1021.14 1020.98 1020.73 1020.50 1020.34 1020.15 1019.82 1019.45 1019.14 1018.71 1018.51 1018.24 1017.95 1017.78 1017.13 1015.84 1016.20 1016.17 1015.95 1016.10 1015.97 1015.98 1015.66 1015.28 1015.51 1015.34 1015.05 1015.26 1015.35 1015.88 1015.71 1015.50 1015.77 1016.09 1016.45 1016.68
1020.49 1020.64 1020.78 1020.89 1020.91 1021.03 1021.05 1021.03 1021.19 1021.25 1021.22 1021.13 1021.00 1020.80 1020.52 1020.30 1020.07 1019.77 1019.37 1019.01 1018.54 1018.22 1018.04 1017.85 1017.71 1016.69 1015.76 1016.48 1016.18 1016.21 1015.95 1015.93 1015.99 1015.96 1015.90 1015.93 1015.72 1015.66 1015.59 1015.87 1015.54 1015.05 1014.84 1014.21 1015.34 1016.11 1016.65
1020.23 1020.24 1020.40 1020.56 1020.64 1020.73 1020.82 1020.79 1020.96 1021.17 1021.14 1021.09 1021.01 1020.86 1020.73 1020.36 1020.02 1019.75 1019.23 1018.75 1018.34 1018.06 1017.87 1017.67 1017.22 1016.09 1015.79 1016.73 1016.32 1016.29 1016.08 1015.79 1016.03 1016.09 1016.25 1016.23 1015.86 1015.53 1015.90 1014.95 1014.20 1014.08 1013.41 1013.87 1014.47 1015.59 1015.97
1019.96 1019.96 1020.00 1020.15 1020.29 1020.37 1020.48 1020.54 1020.60 1020.98 1021.06 1020.98 1020.99 1020.86 1020.73 1020.50 1020.08 1019.61 1019.07 1018.65 1018.17 1018.00 1017.50 1016.90 1016.48 1016.18 1016.33 1015.88 1016.37 1016.47 1016.34 1016.21 1015.91 1015.93 1015.89 1015.72 1015.29 1014.84 1014.55 1014.16 1013.50 1013.75 1013.55 1013.74 1014.10 1014.91 1015.49
1019.58 1019.66 1019.68 1019.74 1019.81 1019.92 1020.07 1020.18 1020.28 1020.61 1020.84 1020.91 1020.85 1020.84 1020.74 1020.49 1020.15 1019.85 1018.57 1017.90 1017.79 1017.19 1016.46 1016.03 1015.82 1015.84 1016.04 1016.43 1016.68 1016.36 1016.49 1016.22 1015.93 1015.69 1014.99 1015.27 1014.88 1014.23 1014.93 1015.34 1015.21 1014.90 1014.41 1013.97 1013.81 1015.09 1015.31
1019.14 1019.29 1019.31 1019.33 1019.22 1019.32 1019.59 1019.81 1020.02 1020.38 1020.52 1020.73 1020.78 1020.74 1020.70 1020.45 1020.08 1019.76 1019.24 1016.87 1016.66 1016.84 1016.16 1016.36 1016.28 1016.18 1016.29 1016.21 1016.18 1016.35 1016.62 1016.19 1015.70 1014.98 1015.22 1015.22 1014.66 1015.67 1016.05 1016.07 1015.86 1015.31 1014.79 1013.98 1014.20 1015.15 1015.26
1018.73 1018.88 1018.94 1018.87 1018.59 1018.62 1019.13 1019.52 1019.89 1020.23 1020.44 1020.58 1020.61 1020.67 1020.59 1020.34 1019.92 1019.33 1017.64 1016.81 1016.93 1016.62 1015.62 1016.17 1016.06 1015.92 1016.22 1016.45 1016.01 1016.14 1016.49 1016.00 1015.53 1015.23 1015.12 1015.10 1015.96 1016.58 1016.62 1016.27 1016.08 1015.27 1015.55 1015.38 1015.49 1014.87 1013.75
1018.24 1018.45 1018.58 1018.55 1018.37 1018.54 1018.88 1019.38 1019.84 1020.11 1020.31 1020.47 1020.59 1020.55 1020.49 1020.18 1020.08 1017.47 1017.09 1017.09 1017.14 1016.95 1015.42 1015.61 1015.84 1016.05 1016.35 1016.30 1016.43 1016.90 1016.82 1016.63 1015.86 1015.39 1015.70 1015.69 1016.69 1016.89 1016.87 1016.68 1016.83 1016.20 1016.71 1016.55 1015.95 1015.13 1013.45
1017.63 1017.98 1018.18 1018.41 1018.52 1018.66 1018.89 1019.22 1019.67 1019.88 1020.13 1020.28 1020.41 1020.45 1020.43 1020.42 1018.78 1017.25 1016.93 1017.11 1017.11 1016.82 1014.96 1015.32 1015.78 1016.24 1016.04 1016.10 1016.53 1016.81 1017.16 1016.59 1015.92 1015.78 1016.27 1016.65 1016.89 1017.23 1017.26 1017.58 1017.70 1017.17 1017.37 1016.90 1016.20 1015.15 1014.01
1016.88 1017.36 1017.79 1018.02 1018.39 1018.58 1018.77 1019.05 1019.35 1019.76 1019.95 1020.10 1020.15 1020.25 1020.33 1019.49 1018.43 1017.13 1017.22 1017.25 1017.07 1016.09 1014.33 1015.15 1015.50 1015.70 1015.79 1015.99 1016.22 1016.69 1016.66 1016.80 1016.84 1016.41 1016.31 1016.78 1017.81 1017.97 1018.09 1018.26 1018.20 1017.94 1017.24 1016.23 1015.88 1014.78 1013.22
1016.16 1016.69 1017.23 1017.61 1017.92 1018.37 1018.64 1018.87 1019.11 1019.35 1019.71 1019.87 1019.98 1020.06 1020.12 1018.45 1016.87 1017.13 1017.33 1016.78 1015.75 1014.20 1014.11 1014.65 1014.79 1015.24 1015.12 1015.41 1015.78 1016.02 1016.07 1016.06 1015.69 1015.81 1015.63 1016.72 1017.45 1018.53 1018.88 1018.28 1018.17 1017.73 1016.37 1015.04 1014.46 1013.60 1012.64
1015.43 1015.89 1016.50 1017.13 1017.51 1017.88 1018.41 1018.69 1018.91 1019.12 1019.34 1019.61 1019.76 1019.87 1018.84 1017.81 1017.38 1017.27 1016.88 1015.99 1014.16 1012.77 1012.95 1013.93 1014.34 1014.77 1014.68 1015.04 1015.13 1015.43 1015.39 1015.08 1015.41 1015.50 1015.29 1015.53 1017.34 1018.32 1019.01 1018.80 1018.37 1017.77 1017.23 1016.09 1015.30 1014.03 1013.22
1014.62 1015.12 1015.74 1016.40 1017.00 1017.55 1017.94 1018.38 1018.70 1018.97 1019.15 1019.35 1019.56 1018.66 1017.69 1016.98 1017.43 1017.25 1016.06 1014.35 1012.00 1011.88 1012.58 1013.54 1014.27 1014.15 1014.22 1014.67 1014.91 1014.97 1014.70 1014.14 1014.19 1015.04 1014.93 1015.17 1016.92 1018.75 1019.30 1019.45 1019.33 1017.98 1017.24 1017.45 1016.22 1015.24 1014.06
1013.72 1014.37 1014.87 1015.69 1016.31 1017.02 1017.64 1017.97 1018.44 1018.70 1019.02 1019.10 1018.11 1017.49 1016.74 1017.20 1017.28 1016.85 1015.49 1013.02 1012.28 1012.80 1013.01 1013.22 1012.69 1012.85 1012.86 1013.73 1014.33 1014.31 1013.94 1013.99 1014.70 1015.16 1015.45 1015.17 1016.43 1018.39 1019.48 1019.82 1019.60 1018.84 1018.32 1017.54 1016.36 1015.24 1013.62
1012.86 1013.46 1014.13 1014.83 1015.66 1016.34 1017.06 1017.61 1017.97 1018.45 1018.74 1019.03 1017.65 1016.61 1016.69 1017.14 1017.04 1016.00 1013.82 1012.52 1012.59 1013.26 1013.20 1013.04 1012.37 1012.54 1012.19 1012.79 1013.30 1013.49 1013.55 1014.87 1015.11 1015.94 1016.14 1015.76 1016.40 1018.53 1019.30 1019.18 1018.61 1018.93 1017.97 1017.64 1017.10 1016.08 1014.70
1011.90 1012.57 1013.30 1013.99 1014.72 1015.73 1016.35 1017.06 1017.58 1018.01 1018.63 1019.05 1016.71 1015.70 1016.53 1016.75 1016.05 1014.58 1013.21 1012.68 1013.36 1013.23 1013.51 1013.17 1012.83 1012.39 1012.27 1012.56 1012.89 1013.16 1013.63 1014.69 1015.55 1016.13 1016.32 1016.36 1016.26 1016.87 1017.84 1018.92 1019.14 1018.65 1017.82 1017.32 1016.80 1016.30 1015.62
1010.76 1011.52 1012.28 1013.08 1013.92 1014.73 1015.66 1016.36 1017.08 1017.50 1017.78 1016.65 1015.61 1015.60 1016.66 1016.15 1014.27 1013.06 1013.14 1013.16 1013.43 1013.28 1013.08 1013.00 1012.70 1012.54 1012.46 1012.47 1012.87 1013.29 1014.19 1015.97 1016.34 1016.45 1016.48 1016.66 1016.36 1016.30 1017.49 1018.69 1018.94 1018.39 1017.71 1017.49 1017.28 1017.05 1015.85
1009.67 1010.34 1011.17 1012.13 1012.97 1013.81 1014.85 1015.65 1016.42 1017.02 1017.15 1017.89 1014.92 1014.95 1015.73 1015.75 1013.36 1012.67 1012.61 1012.76 1013.03 1013.13 1012.77 1012.74 1012.35 1012.57 1012.60 1012.42 1012.85 1013.32 1014.45 1016.22 1016.84 1016.85 1017.22 1016.89 1015.99 1015.36 1015.48 1016.18 1016.75 1017.33 1017.29 1017.39 1016.98 1016.34 1015.20
1008.18 1009.35 1010.17 1011.06 1011.81 1013.04 1013.83 1014.93 1015.61 1016.46 1017.16 1017.73 1014.62 1012.28 1012.33 1012.95 1012.86 1012.57 1011.68 1011.81 1011.97 1012.39 1012.93 1012.71 1012.51 1012.22 1012.00 1011.96 1012.57 1013.05 1013.84 1015.98 1016.98 1017.39 1017.27 1016.73 1015.84 1015.32 1015.27 1015.72 1016.18 1016.07 1016.18 1016.52 1016.34 1015.57 1014.90
1006.77 1007.97 1009.02 1009.93 1010.96 1011.97 1012.86 1013.75 1014.81 1015.78 1016.95 1017.07 1013.31 1012.43 1012.55 1011.48 1011.91 1012.21 1011.52 1010.95 1011.01 1011.15 1011.69 1011.73 1011.69 1011.78 1011.79 1011.53 1011.72 1012.04 1013.21 1014.18 1014.90 1016.81 1016.82 1016.68 1015.96 1015.85 1015.38 1015.60 1015.91 1015.38 1015.21 1015.09 1014.94 1014.86 1014.16
1006.02 1006.68 1007.68 1008.72 1009.85 1010.89 1011.98 1012.93 1013.91 1014.78 1015.60 1014.50 1013.18 1012.62 1011.66 1011.35 1010.82 1011.07 1010.28 1010.25 1010.02 1010.47 1011.07 1010.73 1011.12 1011.37 1011.49 1011.27 1011.64 1012.50 1012.62 1013.34 1013.69 1014.98 1015.81 1016.18 1016.00 1016.04 1015.25 1015.77 1015.93 1015.18 1012.95 1013.21 1013.33 1012.90 1012.76
1005.29 1005.71 1006.55 1007.50 1008.55 1009.83 1010.84 1011.91 1012.82 1013.54 1013.82 1012.82 1012.47 1012.18 1011.50 1010.64 1010.28 1009.63 1009.71 1009.98 1010.02 1009.95 1010.05 1010.89 1011.41 1011.21 1011.88 1012.06 1012.88 1013.27 1013.61 1013.91 1014.18 1014.72 1015.10 1015.53 1015.90 1016.28 1015.90 1015.97 1014.69 1012.30 1012.61 1012.65 1012.59 1011.99 1011.73
1004.43 1004.54 1005.37 1006.33 1007.37 1008.55 1009.84 1010.77 1011.70 1012.66 1013.07 1013.43 1012.60 1012.19 1011.14 1009.88 1010.09 1009.68 1009.41 1009.58 1009.92 1010.64 1010.88 1011.14 1011.53 1011.49 1012.03 1012.42 1012.92 1013.36 1013.75 1014.15 1014.19 1014.76 1015.58 1015.56 1015.97 1016.55 1016.21 1015.15 1013.09 1012.54 1011.46 1012.16 1011.83 1010.28 1009.86
1004.36 1004.28 1004.44 1005.25 1006.17 1007.37 1008.49 1009.61 1010.66 1011.78 1012.20 1013.46 1012.57 1012.35 1011.77 1010.54 1009.53 1009.33 1009.74 1009.65 1009.52 1010.16 1011.28 1011.85 1012.95 1012.71 1012.50 1012.56 1012.54 1012.27 1012.26 1012.36 1013.60 1015.23 1016.44 1016.31 1016.32 1016.14 1016.15 1014.95 1012.81 1011.13 1011.55 1011.59 1011.42 1009.67 1008.13
1004.28 1004.39 1005.05 1004.88 1005.28 1006.33 1007.46 1008.53 1009.70 1010.58 1011.77 1012.68 1012.03 1012.46 1011.98 1010.85 1009.62 1009.45 1008.96 1009.33 1009.29 1009.73 1010.24 1011.46 1012.74 1013.28 1013.25 1012.56 1012.32 1011.85 1011.18 1011.28 1012.09 1013.17 1015.03 1015.90 1016.13 1015.52 1015.40 1013.98 1011.57 1010.78 1011.36 1011.64 1010.72 1008.33 1007.66
1003.94 1004.24 1004.79 1005.00 1005.25 1005.46 1006.53 1007.68 1008.57 1009.77 1010.85 1011.87 1011.46 1011.97 1011.53 1010.96 1010.22 1010.43 1009.69 1009.43 1009.48 1009.41 1009.90 1011.03 1012.56 1012.68 1012.92 1012.38 1011.73 1011.06 1010.67 1010.71 1010.74 1010.74 1012.25 1012.89 1013.90 1014.14 1014.24 1012.99 1010.73 1009.78 1011.29 1010.34 1007.93 1007.73 1007.85
1003.54 1003.59 1004.46 1004.17 1004.76 1005.36 1006.10 1006.56 1007.31 1008.49 1009.79 1011.22 1011.27 1011.44 1012.01 1011.47 1010.92 1010.92 1010.75 1010.42 1010.10 1009.98 1010.02 1010.85 1009.82 1010.46 1010.88 1011.21 1010.77 1010.26 1010.23 1009.72 1009.73 1009.47 1010.69 1010.71 1009.89 1010.47 1010.74 1009.19 1008.86 1008.57 1007.83 1007.90 1007.90 1007.81 1007.74
Wind_Speed
7 6 5 5 4 3 2 3 4 5 6 7 7 8 9 11 12 12 12 12 12 10 9 9 10 9 6 8 6 6 4 3 6 5 4 4 4 2 2 2 1 2 2 0 2 2 2
9 8 7 6 7 6 5 3 3 4 5 6 8 8 9 10 12 13 13 13 13 10 8 9 9 9 9 6 2 4 3 2 3 5 1 5 5 5 4 3 5 2 1 2 4 3 3
11 10 9 8 8 9 8 6 3 2 5 7 8 9 9 10 11 13 14 14 13 10 8 8 7 6 8 6 1 4 1 2 2 3 0 3 3 5 1 1 1 1 5 5 6 3 2
11 11 11 10 9 10 10 8 5 3 2 6 8 9 11 11 12 14 15 15 12 8 6 5 6 8 3 3 3 2 2 4 3 6 5 3 3 4 3 2 4 5 4 5 6 3 5
11 10 10 11 11 11 10 8 6 4 3 3 6 8 11 13 13 15 16 16 9 6 6 6 7 7 5 4 4 2 2 1 3 4 4 1 3 1 4 6 6 6 6 5 2 4 3
13 12 11 12 11 11 11 11 9 6 4 3 4 8 10 12 14 15 17 9 5 5 5 5 4 7 6 3 4 0 2 1 2 3 4 5 5 7 6 6 4 8 7 6 6 4 7
13 12 11 12 13 13 13 13 11 9 5 4 5 6 9 13 14 14 13 5 6 7 8 5 5 3 5 5 4 3 1 3 4 6 7 2 8 3 6 5 6 6 7 10 6 5 7
13 14 13 14 16 14 13 12 11 9 6 4 5 7 9 12 13 14 7 7 6 6 4 1 1 3 2 0 4 4 2 5 5 7 2 6 1 5 2 3 5 7 9 8 4 1 6
14 14 14 13 12 15 11 10 9 7 4 4 5 7 10 12 14 7 8 1 4 3 5 5 2 3 3 4 1 5 3 1 5 4 3 7 7 1 3 4 7 6 7 9 8 15 9
15 15 13 9 8 11 13 10 9 6 4 4 5 8 9 12 5 4 7 3 2 3 6 11 8 5 6 3 5 1 2 4 4 5 2 3 4 2 3 5 5 8 4 5 10 9 5
17 15 13 9 9 11 11 10 7 6 5 5 5 7 7 6 9 6 5 4 3 4 6 9 6 3 4 5 5 4 1 4 5 2 4 6 1 2 5 5 5 5 6 8 9 9 8
18 16 15 13 12 11 11 10 10 6 5 4 4 5 6 6 6 2 3 3 5 7 5 6 6 8 9 7 4 4 4 3 2 3 3 3 2 3 5 1 3 7 9 10 6 5 5
20 18 17 15 14 13 12 12 11 10 7 5 4 4 6 6 2 7 5 5 7 8 4 8 8 8 12 8 8 7 8 8 6 5 8 5 3 3 2 5 3 6 9 2 4 4 5
22 20 18 17 16 15 13 13 12 11 9 5 4 5 8 7 3 5 7 7 9 3 6 5 6 9 9 9 6 8 6 9 8 6 2 4 6 1 1 3 5 4 5 4 4 5 9
24 22 20 19 18 16 15 13 13 12 9 6 3 6 5 6 5 5 10 11 4 4 7 11 12 10 9 8 4 10 11 8 2 13 6 4 4 3 2 3 4 3 1 2 5 3 5
25 24 22 20 19 18 16 15 14 12 9 9 5 7 7 6 6 7 10 13 4 1 5 13 9 12 12 12 9 10 10 3 4 5 1 2 3 0 4 2 1 4 3 4 4 4 5
26 25 24 23 21 19 17 16 15 13 10 7 6 7 7 6 6 8 13 13 8 6 6 10 8 8 7 9 13 9 2 4 3 5 3 1 3 5 1 6 2 4 3 2 4 3 4
28 27 26 25 23 20 19 17 16 15 10 4 7 6 7 8 10 11 14 13 2 9 9 6 4 4 10 10 11 10 7 2 6 10 7 3 3 3 2 2 3 4 4 6 3 3 2
29 28 27 26 24 23 21 19 18 17 20 6 6 4 4 9 11 13 7 7 3 8 11 9 9 8 4 9 7 9 6 2 6 8 7 7 5 3 5 4 2 5 6 8 1 2 7
29 29 29 27 26 24 22 21 19 19 19 4 6 7 6 8 11 13 18 14 13 10 7 7 5 7 8 8 5 8 8 3 5 6 1 4 4 8 6 4 2 5 8 10 11 6 7
31 29 29 28 28 26 25 23 22 20 15 4 5 6 11 12 17 14 17 11 18 11 8 12 8 13 12 8 10 7 9 6 4 5 5 5 7 9 10 7 9 12 12 14 17 18 13
32 31 31 30 29 27 26 26 24 21 17 6 4 5 3 7 20 22 14 16 18 20 14 11 14 15 14 11 10 9 12 9 6 9 8 5 3 2 9 9 10 17 17 17 19 21 22
26 32 32 32 30 29 29 27 26 25 19 7 5 2 4 7 16 17 19 19 20 17 14 11 17 11 17 16 3 3 5 2 5 10 13 8 5 4 3 1 3 11 18 18 12 14 17
15 33 33 32 31 30 30 29 29 30 26 5 3 4 5 5 13 17 19 24 17 22 10 15 8 17 4 10 11 5 4 2 6 7 9 8 10 4 4 1 7 1 2 2 9 13 16
12 32 33 33 32 32 31 30 30 31 31 7 3 4 4 4 12 13 16 13 19 13 14 9 11 1 13 13 5 6 5 4 9 10 8 8 9 4 5 9 12 14 6 8 9 11 14
4 9 34 33 33 32 32 32 31 32 29 13 5 3 3 4 9 13 14 12 12 14 12 6 3 6 12 5 6 10 9 8 8 6 4 8 8 8 7 6 7 5 5 4 5 11 16
13 13 8 10 32 30 31 31 32 31 30 14 6 8 3 4 4 13 14 14 10 13 8 11 9 7 6 5 5 7 9 4 9 10 9 7 7 13 12 10 9 8 11 7 6 7 9
16 16 16 16 14 20 31 31 32 32 30 20 10 10 5 3 3 8 7 7 9 11 9 10 8 5 5 9 7 6 7 10 8 7 10 12 12 8 9 8 13 15 11 11 8 2 8
20 18 23 18 18 18 16 31 34 34 31 26 9 9 8 5 3 2 6 5 3 4 6 13 5 14 9 8 8 6 6 6 10 9 11 9 12 8 13 9 2 21 12 18 2 7 8
Wind_Direction
258 269 279 286 236 264 301 334 3 7 13 14 14 12 5 359 350 344 341 334 327 323 320 318 306 315 275 218 67 28 319 203 267 277 315 322 317 304 18 38 255 11 123 118 94 192 265
240 251 263 276 290 240 245 260 312 346 353 0 358 357 356 352 344 339 334 330 323 318 312 300 307 318 246 253 43 8 351 267 354 281 8 314 13 5 66 23 330 57 192 164 195 197 233
234 236 246 261 272 276 239 234 253 304 336 344 347 346 345 345 342 336 331 327 318 310 298 291 303 282 250 66 24 359 88 28 350 333 72 31 7 323 324 175 117 206 257 197 205 205 287
240 228 240 250 262 267 272 218 227 262 316 334 341 341 338 339 338 334 328 322 311 299 284 279 300 260 51 105 352 200 204 101 82 70 92 70 71 86 324 120 211 255 241 282 125 200 126
253 245 237 247 253 256 257 227 213 240 277 323 336 340 338 335 335 333 326 316 292 291 263 269 250 250 127 131 196 73 313 108 114 108 90 165 265 40 181 246 212 204 328 346 143 187 296
252 244 246 247 245 247 247 240 192 213 255 304 329 328 332 331 330 330 320 285 279 272 223 227 261 243 168 168 116 131 85 245 264 173 189 228 232 247 217 277 355 340 327 333 325 112 247
245 242 244 248 246 240 236 241 186 193 206 275 308 321 327 323 326 329 317 193 199 184 207 345 16 50 135 101 185 192 18 222 227 239 258 175 263 6 23 11 348 316 302 302 328 73 293
232 240 248 258 254 220 223 230 179 195 190 245 292 312 320 317 318 317 276 253 24 356 178 133 119 116 68 116 171 158 241 242 217 251 231 216 338 51 28 329 303 294 296 326 322 68 289
219 235 251 261 247 196 204 178 175 193 193 241 281 305 308 315 317 277 239 268 325 294 250 163 161 169 140 229 308 127 260 275 271 244 260 304 58 67 293 287 298 280 310 342 319 318 257
213 227 242 247 194 169 161 165 178 184 202 240 275 288 302 319 286 177 211 163 255 304 252 153 187 144 169 198 187 2 38 302 212 288 273 338 84 272 279 291 320 299 23 314 307 320 328
209 218 224 206 181 168 164 166 174 185 208 230 257 282 295 294 332 208 74 172 192 237 259 136 139 78 155 223 119 137 50 217 272 162 256 73 184 291 285 20 336 354 325 305 298 287 301
204 210 215 203 194 185 171 169 170 190 196 219 249 279 304 213 229 49 163 165 220 229 236 155 143 177 175 189 152 129 187 170 8 236 232 41 69 343 12 323 296 311 277 243 270 263 225
202 204 210 201 195 190 185 181 182 183 204 224 249 272 266 315 173 146 174 192 208 249 133 157 185 181 201 174 183 200 187 189 217 210 200 161 144 105 308 274 209 266 291 272 214 214 28
200 198 203 200 196 192 193 192 188 192 194 214 248 267 200 273 175 199 196 204 239 2 173 100 164 172 187 165 209 188 204 228 209 234 273 252 174 240 29 340 334 347 326 358 316 347 322
199 196 197 198 195 196 194 197 194 198 193 188 257 198 215 178 207 220 212 212 243 168 142 155 153 182 188 197 251 198 218 242 222 203 239 200 131 137 44 331 311 74 295 22 284 175 268
199 197 192 195 194 194 197 195 196 195 193 192 205 190 182 142 193 214 221 233 211 166 144 171 195 206 188 185 196 201 180 167 191 218 295 107 189 186 101 253 119 305 360 227 189 327 312
201 194 193 192 194 192 193 196 193 191 183 216 219 197 111 177 192 209 218 220 210 199 182 188 206 181 220 171 206 192 164 128 178 160 234 248 279 107 205 200 113 166 200 230 310 291 307
197 195 194 192 188 191 189 192 190 179 164 191 197 206 146 183 192 207 221 216 35 183 195 213 265 245 196 186 197 203 203 109 150 154 173 155 303 211 67 114 325 306 304 273 292 168 266
197 196 193 190 188 186 188 189 188 176 188 176 191 122 169 204 207 205 194 215 248 194 197 188 203 216 186 185 198 201 186 70 158 176 167 175 201 201 180 180 185 236 204 237 266 294 244
199 196 193 190 186 185 186 186 186 185 205 247 157 164 155 212 248 233 207 215 211 219 230 209 194 176 178 198 182 178 170 139 180 188 4 183 224 259 288 13 104 194 207 218 219 225 250
197 196 194 191 184 185 183 187 184 188 186 227 230 199 177 186 212 214 212 209 206 183 223 208 199 217 194 197 186 201 162 139 169 167 195 224 243 239 260 271 253 263 255 208 221 235 251
195 194 192 191 187 185 184 184 183 176 153 237 219 180 192 197 200 202 205 214 212 203 177 199 226 201 210 220 201 198 183 179 179 175 193 197 240 228 259 234 258 276 265 252 240 234 255
217 195 192 190 188 185 185 184 181 169 175 195 215 282 255 166 189 191 207 214 207 206 203 220 204 203 211 221 217 3 170 231 136 168 188 182 212 218 265 122 256 263 262 236 225 237 234
256 202 193 191 187 186 184 185 181 177 194 225 167 218 235 187 200 198 202 208 209 204 198 204 217 202 132 110 105 112 108 116 189 196 194 193 200 175 270 166 243 272 218 249 242 247 225
333 207 194 192 188 186 185 187 185 184 192 220 172 219 228 205 202 214 202 216 211 208 234 187 196 195 150 153 143 165 176 194 212 199 199 218 180 188 226 219 288 305 242 179 190 270 216
208 334 199 193 189 187 186 186 188 188 190 214 211 226 261 250 217 198 201 196 185 193 180 160 102 194 173 174 180 201 193 195 166 182 228 213 262 215 187 232 239 83 127 158 159 267 247
211 174 191 244 197 190 189 188 189 189 189 194 214 202 251 229 213 203 188 193 197 181 188 160 155 160 223 189 189 205 218 185 182 192 169 177 201 215 227 245 254 239 157 167 212 268 165
219 206 200 206 225 202 193 192 190 190 188 190 205 195 216 227 177 220 219 183 183 196 160 137 138 195 179 198 198 198 231 194 237 188 174 172 165 189 208 224 253 189 138 209 218 174 204
216 212 221 213 214 215 220 204 192 189 185 186 213 185 221 254 19 17 278 308 312 274 244 177 212 157 176 191 204 211 198 200 202 226 188 223 209 184 203 208 31 169 205 216 279 265 233